Location: A�t �Alizem
(31.2076°N, 8.7872°W)
Time: 06:49:06
(UTC+00:00)

SL-24 R/B - RUBIN 2 - Pass Details

Date: 27 November 2020
Orbit: 573 x 1023 km, 64.6° (Epoch: 16 January)

Event Time Altitude Azimuth Distance (km) Brightness Sun altitude
Rises 17:46:18 0° 334° (NNW) 3,600 7.5 -3.5°
Reaches altitude 10° 17:49:01 10° 337° (NNW) 2,592 6.8 -4.0°
Maximum altitude 17:55:00 67° 60° (ENE) 895 4.2 -5.2°
Drops below altitude 10° 18:00:14 10° 143° (SE) 2,273 6.3 -6.3°
Sets 18:02:28 0° 146° (SE) 3,126 7.0 -6.7°
